Hourly Weather Roundup
Issued by NWS Central Illinois

Home | Current Version | Previous Version | Text Only | Print | Product List | Glossary On
Versions: 1 2 3 4 5 6 7 8 9 10 11 12 13 14 15 16 17 18 19 20 21 22 23 24 25 26 27 28 29 30 31 32 33 34 35 36 37 38 39 40 41 42 43 44 45 46 47 48 49 50
000
NZUS43 KILX 251910
HWRILX

Area Weather Roundup
National Weather Service Lincoln IL
200 PM CDT TUE JUL 25 2017

NOTE:  "FAIR" indicates few or no clouds below 12,000 feet, with
       no sigificant weather and/or obstructions to visibility.


CITY           SKY/WX    TMP DP  RH WIND       PRES   REMARKS
Bloomington    MOSUNNY   81  66  60 E10       30.18F HX  83
Champaign      MOSUNNY   79  65  62 E5        30.17F HX  81
Danville       SUNNY     78  62  57 E3        30.16S HX  80
Decatur        MOSUNNY   82  67  60 E8        30.15F HX  84
Effingham      CLOUDY    86  69  57 E3        30.16S HX  89
Flora          PTSUNNY   88  69  54 NE10      30.12S HX  92
Galesburg      MOSUNNY   81  67  63 E5        30.15F HX  83
Jacksonville   PTSUNNY   85  69  58 E7        30.13S HX  89
Lacon          PTSUNNY   80  65  61 E5        30.15F HX  82
Lawrenceville  MOSUNNY   85  69  58 MISG      30.14S HX  89
Litchfield     PTSUNNY   84  70  61 NE6       30.13S HX  88
$$


CITY           SKY/WX    TMP DP  RH WIND       PRES   REMARKS
Lincoln        CLOUDY    82  68  62 E6        30.15F HX  85
Macomb         PTSUNNY   82  69  66 S5        30.16F HX  85
Mattoon        MOSUNNY   81  68  64 E7        30.15S HX  84
Mt Carmel AP   MOSUNNY   83  68  60 E8        30.13S HX  87
Olney-Noble AP PTSUNNY   82  69  64 NE8       30.13S HX  85
Paris AP       MOSUNNY   81  68  65 E5        30.18R HX  84
Peoria         SUNNY     81  66  60 SE7       30.15F HX  83
Pontiac        SUNNY     78  65  64 E9        30.18F HX  80
Rantoul        MOSUNNY   81  64  56 CALM      30.18S HX  83
Robinson       MOSUNNY   83  68  61 E3        30.16R HX  86
Springfield    MOSUNNY   86  70  58 E10       30.13F HX  90
Taylorville    CLOUDY    83  68  60 E7        30.14S HX  86
$$

...REGIONAL REPORTS...


CITY           SKY/WX    TMP DP  RH WIND       PRES   REMARKS
Chicago O`Hare MOSUNNY   80  56  43 S8        30.18F HX  80
Kankakee       SUNNY     77  59  53 E9        30.19F
Moline         CLOUDY    82  67  60 SE10      30.13F HX  84
Mount Sterling MOSUNNY   84  68  58 E5        30.12F HX  86
Mount Vernon   PTSUNNY   86  74  67 SE6       30.11S HX  94
Pittsfield     MOSUNNY   87  70  58 CALM      30.13F HX  91
Quincy         MOSUNNY   87  66  49 SE10      30.11F HX  89
Rockford       PTSUNNY   80  62  54 S9        30.19F HX  81
$$


CITY           SKY/WX    TMP DP  RH WIND       PRES   REMARKS
Burlington     MOSUNNY   83  69  62 S7        30.12F HX  86
Cedar Rapids   MOSUNNY   81  71  71 SE9       30.12F HX  85
Des Moines     MOSUNNY   92  68  45 SE14G21   30.04F HX  96
Kirksville     SUNNY     88  68  51 VRB6      30.11F HX  91
Ottumwa        SUNNY     89  64  43 SE8       30.09S HX  90
St Louis       PTSUNNY   89  71  55 E9        30.10S HX  95
$$


CITY           SKY/WX    TMP DP  RH WIND       PRES   REMARKS
Terre Haute    MOSUNNY   81  64  56 NE5       30.16S HX  82
Evansville     MOSUNNY   87  68  52 NE9       30.11F HX  90
Indianapolis   MOSUNNY   78  57  48 E9        30.18R
Lafayette      SUNNY     78  58  49 E6        30.18S
Madison        CLOUDY    75  61  61 S9        30.17F
Milwaukee      PTSUNNY   78  62  57 SE16      30.19F HX  80
$$






USA.gov is the U.S. government's official web portal to all federal, state and local government web resources and services.